User: anonymous   Login
Location: Marsån
(66.4167°N, 22.2833°E)
Time: 18:48:58
(UTC+00:00)
Language:

Cosmos 1602 Rocket - Orbit

View from above orbital plane
View from above orbital plane
View from above satellite
View from above satellite

Ground track
Ground track

The orbit data is extracted from the following two-line orbital elements,

1 15332U 84105B   24141.52426937  .00001239  00000-0  14363-3 0  9997
2 15332  82.5336 342.7806 0019363 309.0247 112.8748 14.84563230141609
Epoch (UTC): 20 May 2024 12:34:56
Eccentricity: 0.0019363
inclination: 82.5336°
perigee height: 601 km
apogee height: 628 km
right ascension of ascending node: 342.7806°
argument of perigee: 309.0247°
revolutions per day: 14.84563230
mean anomaly at epoch: 112.8748°
orbit number at epoch: 14160

The dashed part of the orbit path shows where the satellite is in the earth's shadow,  

DLR